Location: Alphen
(52.1351°N, 4.6549°E)
Time: 01:24:01
(UTC+00:00)

Cosmos 1943 Rocket - Pass Details

Date: 27 January 2021
Orbit: 810 x 845 km, 71.0° (Epoch: 27 February)

Event Time Altitude Azimuth Distance (km) Brightness Sun altitude
Exits shadow 03:09:29 21° 33° (NNE) 1,806 4.3 -39.3°
Maximum altitude 03:09:30 21° 33° (NNE) 1,806 4.3 -39.2°
Drops below altitude 10° 03:13:46 10° 82° (E) 2,471 5.3 -38.6°
Sets 03:16:50 0° 98° (E) 3,405 6.1 -38.2°
